Location: Le Rouget
(44.8538°N, 2.2328°E)
Time: 08:33:05
(UTC+00:00)

Cosmos 1766 - Pass Details

Date: 15 May 2026
Orbit: 398 x 405 km, 82.5° (Epoch: 6 June)

Event Time Altitude Azimuth Distance (km) Brightness Sun altitude
Rises 21:52:17 0° 358° (N) 2,362 7.6 -20.9°
Reaches altitude 10° 21:54:24 10° 6° (N) 1,493 6.3 -21.1°
Enters shadow 21:56:48 35° 44° (NE) 691 3.9 -21.3°
